Location: B?dargowo
(53.3916°N, 14.4413°E)
Time: 09:36:01
(UTC+00:00)

APEX - Pass Details

Date: 05 February 2023
Orbit: 321 x 871 km, 69.9° (Epoch: 19 March)

Event Time Altitude Azimuth Distance (km) Brightness Sun altitude
Rises 16:51:32 0° 209° (SSW) 3,532 8.1 -9.1°
Reaches altitude 10° 16:54:08 10° 209° (SSW) 2,570 7.4 -9.4°
Maximum altitude 17:00:10 85° 122° (ESE) 855 4.2 -10.3°
Drops below altitude 10° 17:05:35 10° 35° (NE) 2,315 6.1 -11.1°
Enters shadow 17:06:30 - 35° (NE) 2,662 6.4 -11.2°
